| time (UTC) | temp F | wind direction | speed knots | gust knots | rain 1hr in | rain 24hr in | rain mn in | humidity % | barometer mb |
| 20260505064533 | 51 | 107 | 0.9 | 2.6 | 0.00 | 0.00 | 0.00 | 38 | 1014.5 |
| 20260505063035 | 51 | 202 | 0.9 | 4.3 | 0.00 | 0.00 | 0.00 | 37 | 1014.3 |
| 20260505061531 | 51 | 133 | 1.7 | 6.1 | 0.00 | 0.00 | 0.00 | 37 | 1014.5 |
| 20260505060023 | 51 | 144 | 0.9 | 3.5 | 0.00 | 0.00 | 0.00 | 39 | 1014.5 |
| 20260505054527 | 51 | 133 | 0.9 | 2.6 | 0.00 | 0.00 | 0.00 | 38 | 1014.5 |
| 20260505053021 | 51 | 136 | 0.0 | 3.5 | 0.00 | 0.00 | 0.00 | 38 | 1014.3 |
| 20260505051521 | 51 | 236 | 0.0 | 3.5 | 0.00 | 0.00 | 0.00 | 37 | 1014.2 |
| 20260505041516 | 50 | 139 | 0.9 | 2.6 | 0.00 | 0.00 | 0.00 | 43 | 1014.0 |
| 20260505040017 | 50 | 208 | 0.0 | 1.7 | 0.00 | 0.00 | 0.00 | 49 | 1014.0 |
| 20260505034516 | 51 | 205 | 0.9 | 2.6 | 0.00 | 0.00 | 0.00 | 45 | 1013.7 |
| 20260505033026 | 52 | 169 | 0.0 | 1.7 | 0.00 | 0.00 | 0.00 | 44 | 1013.7 |
| 20260505031511 | 52 | 115 | 0.9 | 9.6 | 0.00 | 0.00 | 0.00 | 45 | 1013.5 |
| 20260505030010 | 53 | 148 | 0.0 | 0.9 | 0.00 | 0.00 | 0.00 | 44 | 1013.3 |
| 20260505024527 | 55 | 29 | 0.0 | 3.5 | 0.00 | 0.00 | 0.00 | 44 | 1013.4 |
| 20260505023009 | 56 | 84 | 0.0 | 0.9 | 0.00 | 0.00 | 0.00 | 42 | 1013.2 |
| 20260505021526 | 57 | 105 | 0.0 | 3.5 | 0.00 | 0.00 | 0.00 | 43 | 1013.1 |
| 20260505020008 | 58 | 69 | 0.0 | 3.5 | 0.00 | 0.00 | 0.00 | 41 | 1012.9 |
| 20260505014508 | 58 | 346 | 0.0 | 2.6 | 0.00 | 0.00 | 0.00 | 41 | 1012.9 |
| 20260505013008 | 58 | 79 | 0.0 | 1.7 | 0.00 | 0.00 | 0.00 | 41 | 1012.9 |
| 20260505011508 | 58 | 75 | 0.9 | 6.1 | 0.00 | 0.00 | 0.00 | 41 | 1012.8 |
| 20260505010007 | 59 | 86 | 0.0 | 1.7 | 0.00 | 0.00 | 0.00 | 41 | 1012.8 |
| 20260505004514 | 60 | 37 | 0.0 | 1.7 | 0.00 | 0.00 | 0.00 | 41 | 1012.7 |
| 20260505001503 | 61 | 72 | 0.9 | 3.5 | 0.00 | 0.00 | 0.00 | 40 | 1012.6 |
| 20260504234559 | 63 | 309 | 2.6 | 8.7 | 0.00 | 0.00 | 0.00 | 39 | 1012.3 |
| 20260504231536 | 63 | 32 | 0.9 | 3.5 | 0.00 | 0.00 | 0.00 | 40 | 1012.4 |
| 20260504230113 | 62 | 68 | 1.7 | 6.1 | 0.00 | 0.00 | 0.00 | 40 | 1012.4 |
| 20260504224533 | 63 | 73 | 1.7 | 4.3 | 0.00 | 0.00 | 0.00 | 40 | 1012.3 |
| 20260504223036 | 62 | 94 | 1.7 | 4.3 | 0.00 | 0.00 | 0.00 | 39 | 1012.3 |
| 20260504221536 | 62 | 67 | 1.7 | 6.1 | 0.00 | 0.00 | 0.00 | 40 | 1012.3 |
| 20260504220032 | 63 | 68 | 0.9 | 5.2 | 0.00 | 0.00 | 0.00 | 39 | 1012.3 |
| 20260504214532 | 63 | 70 | 1.7 | 5.2 | 0.00 | 0.00 | 0.00 | 39 | 1012.2 |
| 20260504213030 | 63 | 84 | 1.7 | 3.5 | 0.00 | 0.00 | 0.00 | 41 | 1012.2 |
| 20260504211530 | 63 | 274 | 0.9 | 4.3 | 0.00 | 0.00 | 0.00 | 36 | 1012.2 |
| 20260504210031 | 63 | 102 | 0.9 | 2.6 | 0.00 | 0.00 | 0.00 | 38 | 1012.2 |
| 20260504204541 | 64 | 338 | 1.7 | 4.3 | 0.00 | 0.00 | 0.00 | 35 | 1012.2 |
| 20260504203029 | 63 | 74 | 0.0 | 2.6 | 0.00 | 0.00 | 0.00 | 38 | 1012.4 |
| 20260504201527 | 63 | 30 | 0.0 | 4.3 | 0.00 | 0.00 | 0.00 | 38 | 1012.4 |
| 20260504200027 | 63 | 84 | 2.6 | 6.1 | 0.00 | 0.00 | 0.00 | 35 | 1012.5 |
| 20260504194529 | 63 | 252 | 0.9 | 7.8 | 0.00 | 0.00 | 0.00 | 39 | 1012.5 |
| 20260504193025 | 64 | 230 | 1.7 | 5.2 | 0.00 | 0.00 | 0.00 | 38 | 1012.6 |
| 20260504191523 | 65 | 91 | 0.9 | 3.5 | 0.00 | 0.00 | 0.00 | 37 | 1012.7 |
| 20260504190025 | 64 | 72 | 2.6 | 6.1 | 0.00 | 0.00 | 0.00 | 37 | 1012.7 |
| 20260504184532 | 63 | 110 | 0.9 | 5.2 | 0.00 | 0.00 | 0.00 | 38 | 1012.9 |
| 20260504183021 | 63 | 274 | 0.9 | 3.5 | 0.00 | 0.00 | 0.00 | 38 | 1012.8 |
| 20260504181522 | 63 | 76 | 2.6 | 5.2 | 0.00 | 0.00 | 0.00 | 39 | 1013.0 |
| 20260504180018 | 63 | 65 | 1.7 | 5.2 | 0.00 | 0.00 | 0.00 | 39 | 1013.1 |
| 20260504174518 | 62 | 68 | 2.6 | 7.0 | 0.00 | 0.00 | 0.00 | 39 | 1013.1 |
| 20260504173017 | 62 | 340 | 2.6 | 6.1 | 0.00 | 0.00 | 0.00 | 38 | 1013.0 |
| 20260504171516 | 63 | 187 | 1.7 | 4.3 | 0.00 | 0.00 | 0.00 | 40 | 1013.0 |
| 20260504081555 | 47 | 34 | 0.9 | 4.3 | 0.00 | 0.00 | 0.00 | 78 | 1010.1 |